[[{"header":{"parameterUnit":"m.s-1","parameterCategory":2,"la1":30.2991,"la2":30.254,"lo1":-89.0895,"lo2":-89.0444,"dy":0.0017,"dx":0.0017,"nx":28,"ny":28,"refTime":"2024-06-08T03:00:00:Z","depth":"0","parameterNumber":2,"parameterNumberName":"U-component_of_CURRENTS"},"data":[0,0,0,0,0,0,0,0,0,0,0,0,0,0,0,0,0,0,0,0,0,0,0,0,0,0,0,0,0,0,0,0,0,0,0,0,0,0,0,0,0,0,0,0,0,0,0,0,0,0,0,0,0,0,0,0,0,0,0.3645,0.3645,0,0.3706,0.3706,0.3707,0.3691,0.369,0.3689,0.3688,0.3815,0.382,0.3824,0,0,0,0,0,0,0,0,0,0,0,0,0,0.3571,0.3572,0.3644,0.3645,0.3646,0.3706,0.3706,0.3707,0.3692,0.369,0.3689,0.3687,0.3814,0.3819,0.3824,0,0,0,0,0,0,0,0,0,0,0,0,0,0.3615,0.3573,0.3644,0.3645,0.3646,0.3705,0.3706,0.3707,0.3692,0.369,0.3688,0.3687,0.3812,0.3818,0.3825,0.3903,0,0,0.3846,0.3849,0,0,0,0,0,0,0,0,0.3612,0.3617,0.3644,0.3645,0.3646,0.3689,0.3727,0.3776,0.3692,0.3674,0.3688,0.3686,0.3781,0.379,0.3804,0.3909,0.3914,0.3846,0.3851,0.3853,0.3855,0,0,0,0,0,0,0,0.3609,0.3615,0.3669,0.3645,0.3647,0.3662,0.3666,0.3736,0.3738,0.3676,0.3675,0.3682,0.3781,0.3798,0.3807,0.3916,0.3846,0.3852,0.3856,0.3859,0.4201,0.4205,0,0,0,0,0,0,0.3601,0.3612,0.3667,0.367,0.3625,0.3665,0.3669,0.3677,0.3736,0.3743,0.3684,0.3681,0.3787,0.3799,0.3812,0.401,0.3853,0.386,0.3864,0.4196,0.4202,0.4207,0,0,0,0,0,0,0.3599,0.3605,0.3664,0.3642,0.3651,0.3668,0.3677,0.3679,0.3707,0.3741,0.3749,0.371,0.3786,0.3802,0.392,0.4011,0.3863,0.3869,0.419,0.4197,0.4204,0.4342,0,0,0,0,0,0,0.3597,0.3604,0.3616,0.3642,0.3652,0.374,0.3679,0.3682,0.3713,0.3711,0.3767,0.3775,0.3786,0.391,0.3926,0.4018,0.3874,0.4183,0.4193,0.4202,0.4331,0.4353,0.4372,0,0,0,0,0,0.3594,0.3637,0.3617,0.3624,0.3665,0.3743,0.3752,0.3756,0.3716,0.3765,0.3802,0.3774,0.3981,0.392,0.3938,0.4033,0.4179,0.419,0.4201,0.4322,0.4349,0.4372,0,0,0,0,0,0,0.3616,0.364,0.3618,0.3664,0.371,0.3741,0.3791,0.3773,0.3835,0.3838,0.3841,0.3857,0.3998,0.4003,0.3935,0.4162,0.4076,0.4091,0.4161,0.4187,0.4207,0.4232,0.388,0,0,0,0,0,0.3623,0.3664,0.3685,0.373,0.3757,0.377,0.3799,0.3805,0.3855,0.3877,0.3912,0.3969,0.4061,0.4108,0.4185,0.4308,0.4321,0.4383,0.4403,0.442,0.4457,0.4535,0.4565,0.4244,0.4244,0.4244,0,0,0.364,0.3665,0.3682,0.3739,0.3773,0.3848,0.3787,0.3861,0.3932,0.3888,0.4012,0.405,0.4112,0.4257,0.4319,0.427,0.4527,0.4435,0.4449,0.4477,0.455,0.4581,0.4609,0.4252,0.425,0.4249,0,0,0.373,0.3727,0.3798,0.3847,0.3913,0.3928,0.3952,0.4001,0.4039,0.4155,0.4151,0.4248,0.4363,0.4435,0.4482,0.4668,0.4636,0.4685,0.4808,0.4884,0.491,0.4933,0.5009,0.5038,0.4689,0.4689,0.4689,0,0.3752,0.3822,0.3837,0.393,0.3973,0.3968,0.4056,0.4118,0.4198,0.4248,0.4222,0.4415,0.446,0.4639,0.471,0.4717,0.4744,0.47,0.4908,0.4931,0.4952,0.5024,0.5054,0.4697,0.4696,0.4695,0.4695,0,0.3894,0.3949,0.4011,0.4106,0.4168,0.425,0.4315,0.4389,0.4408,0.4447,0.4615,0.4684,0.4781,0.4828,0.4834,0.5023,0.499,0.4922,0.4833,0.4992,0.5059,0.5088,0.4709,0.4706,0.4703,0.4701,0,0,0.3937,0.4075,0.4094,0.4144,0.4255,0.4317,0.4463,0.4574,0.4663,0.4752,0.4877,0.5043,0.5033,0.5091,0.5107,0.5196,0.5378,0.5136,0.5136,0.5194,0.5556,0.5433,0.5451,0.533,0.5335,0.534,0.5547,0,0.4035,0.4196,0.4251,0.4397,0.447,0.4523,0.4651,0.4756,0.4844,0.4973,0.5056,0.5191,0.5147,0.5207,0.529,0.5354,0.5458,0.5329,0.5411,0.5415,0.5269,0.5482,0.5278,0.5436,0.5574,0.5579,0.5582,0,0.4139,0.4229,0.4376,0.4503,0.4545,0.4637,0.48,0.4919,0.5097,0.5172,0.5297,0.5346,0.5519,0.5441,0.5633,0.5544,0.5586,0.5624,0.563,0.5489,0.5345,0.5299,0.5481,0.537,0.5625,0.5622,0.5619,0,0.4128,0.4302,0.4404,0.4456,0.462,0.4703,0.4791,0.4969,0.5067,0.5301,0.5374,0.5559,0.5632,0.5738,0.5801,0.5733,0.5992,0.5882,0.5827,0.5817,0.5651,0.5617,0.5717,0.6052,0.6051,0.6051,0.605,0,0.4183,0.4267,0.4403,0.4465,0.4582,0.4708,0.4856,0.4985,0.5171,0.5288,0.5449,0.5575,0.5707,0.5837,0.5895,0.5959,0.6057,0.5919,0.5887,0.5694,0.5663,0.5557,0.5495,0.6058,0.6057,0.6055,0.6054,0,0.4158,0.4253,0.4364,0.4529,0.4574,0.4659,0.4827,0.4945,0.5125,0.5289,0.5362,0.5599,0.5787,0.5914,0.6107,0.604,0.5988,0.6148,0.5919,0.5855,0.5615,0.5567,0.542,0.5262,0.6115,0.6113,0.6112,0,0.4164,0.422,0.4361,0.442,0.4496,0.4622,0.4711,0.4897,0.5012,0.529,0.5362,0.5612,0.5759,0.6,0.603,0.6143,0.5977,0.5957,0.5784,0.5643,0.5569,0.5319,0.5178,0.5642,0.5637,0.5633,0.563,0,0.4172,0.4211,0.4302,0.4392,0.4484,0.4571,0.4706,0.4768,0.4993,0.5122,0.5331,0.5486,0.5718,0.5755,0.5883,0.5909,0.5659,0.5868,0.5796,0.5298,0.4964,0.4778,0.5473,0.5593,0.5597,0.56,0.5602,0.5603,0.4166,0.4198,0.4299,0.4375,0.4463,0.4529,0.4559,0.4702,0.4825,0.4982,0.5193,0.5327,0.5479,0.5638,0.5626,0.5458,0.5414,0.5293,0.5285,0.5073,0.4797,0.5414,0.5426,0.5428,0.543,0.5432,0.5434,0,0.417,0.4212,0.428,0.4362,0.4405,0.4469,0.4561,0.4559,0.4637,0.4813,0.4949,0.5049,0.5092,0.5165,0.5113,0.4934,0.467,0.4806,0.4455,0.4372,0.5021,0.4877,0.4677,0.4677,0.4677,0.4677,0.4677,0.4678,0.4187,0.4236,0.4246,0.4287,0.4329,0.4319,0.4332,0.4326,0.4405,0.4421,0.4444,0.4561,0.4751,0.485,0.4701,0.4578,0.4256,0.4031,0.4031,0.4561,0.4605,0.4648,0.4501,0.4225,0.4225,0.3179,0.3171,0.3166]},{"header":{"parameterUnit":"m.s-1","parameterCategory":2,"la1":30.2991,"la2":30.254,"lo1":-89.0895,"lo2":-89.0444,"dy":0.0017,"dx":0.0017,"nx":28,"ny":28,"refTime":"2024-06-08T03:00:00:Z","depth":"0","parameterNumber":3,"parameterNumberName":"V-component_of_CURRENTS"},"data":[0,0,0,0,0,0,0,0,0,0,0,0,0,0,0,0,0,0,0,0,0,0,0,0,0,0,0,0,0,0,0,0,0,0,0,0,0,0,0,0,0,0,0,0,0,0,0,0,0,0,0,0,0,0,0,0,0,0,0.0119,0.0119,0,0.0061,0.006,0.0059,0.001,0.0009,0.0009,0.0009,-0.0137,-0.0141,-0.0145,0,0,0,0,0,0,0,0,0,0,0,0,0,0.0111,0.0111,0.0119,0.0119,0.0119,0.0061,0.006,0.0059,0.001,0.0009,0.0009,0.0009,-0.0136,-0.0141,-0.0145,0,0,0,0,0,0,0,0,0,0,0,0,0,0.0087,0.0111,0.0119,0.009,0.0087,0.0062,0.006,0.0059,0.001,0.0009,0.0009,0.0009,-0.0135,-0.014,-0.0146,-0.0173,0,0,-0.0162,-0.0165,0,0,0,0,0,0,0,0,0.0088,0.0086,0.0094,0.0092,0.0088,0.0045,0.0004,-0.0022,0.001,0.0035,0.0009,0.0009,-0.0082,-0.0092,-0.0106,-0.018,-0.0186,-0.0163,-0.0166,-0.0169,-0.017,0,0,0,0,0,0,0,0.009,0.0088,0.0093,0.0094,0.009,0.0053,0.005,-0.0002,-0.0025,0.0033,0.003,0.0029,-0.0085,-0.01,-0.011,-0.0188,-0.0163,-0.0168,-0.0171,-0.0173,-0.0319,-0.0319,0,0,0,0,0,0,0.0109,0.009,0.0095,0.0091,0.0091,0.0054,0.005,0.0057,-0.0023,-0.0033,0.003,0.0027,-0.0091,-0.0103,-0.0115,-0.0162,-0.0169,-0.0174,-0.0177,-0.0318,-0.0319,-0.0319,0,0,0,0,0,0,0.0109,0.011,0.0097,0.0092,0.0088,0.0056,0.0063,0.0056,0.0045,-0.0023,-0.0037,0.0028,-0.0091,-0.0107,-0.0157,-0.0167,-0.0176,-0.0181,-0.0317,-0.0318,-0.0319,-0.0249,0,0,0,0,0,0,0.0109,0.0111,0.0118,0.0094,0.0089,0.0094,0.0063,0.0055,0.0047,0.0043,-0.003,-0.0044,-0.0093,-0.0149,-0.0163,-0.0175,-0.0186,-0.0317,-0.0318,-0.0319,-0.0251,-0.0247,-0.0244,0,0,0,0,0,0.0109,0.013,0.0119,0.012,0.0102,0.0095,0.0089,0.0061,0.0047,0.0049,-0.0005,-0.0042,-0.0166,-0.0153,-0.017,-0.0184,-0.0316,-0.0318,-0.0319,-0.0252,-0.0248,-0.0245,0,0,0,0,0,0,0.013,0.0126,0.0114,0.0132,0.0119,0.0088,0.009,0.007,0.003,0.0022,-0.0045,-0.0063,-0.0111,-0.0157,-0.0141,-0.023,-0.0249,-0.0254,-0.0193,-0.019,-0.0187,-0.0144,-0.019,0,0,0,0,0,0.014,0.0154,0.0138,0.0151,0.015,0.012,0.0113,0.0095,0.006,0.0043,-0.0007,-0.007,-0.013,-0.0164,-0.0218,-0.0264,-0.0269,-0.0287,-0.0283,-0.028,-0.0258,-0.0276,-0.0271,-0.0323,-0.0323,-0.0323,0,0,0.0151,0.0152,0.0158,0.0157,0.0143,0.015,0.0114,0.0113,0.0107,0.0031,0.0006,-0.0056,-0.0139,-0.019,-0.0217,-0.0229,-0.0267,-0.0282,-0.0279,-0.0258,-0.0276,-0.0271,-0.0266,-0.0324,-0.0324,-0.0324,0,0,0.0189,0.0183,0.0209,0.0202,0.0194,0.0175,0.018,0.0154,0.0132,0.0101,0.0037,-0.0022,-0.0104,-0.0166,-0.0211,-0.0223,-0.0245,-0.025,-0.0206,-0.0224,-0.0218,-0.0214,-0.0195,-0.019,-0.0254,-0.0254,-0.0253,0,0.0201,0.0233,0.0213,0.0233,0.0236,0.0194,0.0217,0.0187,0.0144,0.0131,0.0104,-0.0011,-0.0091,-0.0155,-0.0172,-0.0215,-0.021,-0.0211,-0.0216,-0.0212,-0.0208,-0.0191,-0.0185,-0.025,-0.0251,-0.0251,-0.0251,0,0.0255,0.0276,0.0292,0.0304,0.0301,0.0314,0.0279,0.0266,0.0234,0.0202,0.0148,0.0048,-0.001,-0.0068,-0.0131,-0.0161,-0.0159,-0.0202,-0.0214,-0.0198,-0.0181,-0.0177,-0.0246,-0.0247,-0.0248,-0.0249,0,0,0.0299,0.0325,0.0332,0.0358,0.0341,0.0355,0.034,0.0326,0.0343,0.0265,0.0285,0.0132,0.0097,0.0045,-0.0044,-0.0088,-0.0082,-0.0132,-0.0135,-0.0092,-0.0081,-0.007,-0.0065,-0.0119,-0.0119,-0.0118,-0.0071,0,0.035,0.0414,0.0403,0.0458,0.049,0.0449,0.0451,0.0425,0.0397,0.0405,0.0289,0.0273,0.0134,0.0125,0.0052,-0.0035,-0.007,-0.0088,-0.0121,-0.0121,-0.0097,-0.006,-0.0048,-0.0004,-0.0067,-0.0067,-0.0066,0,0.0412,0.045,0.0519,0.0559,0.057,0.0594,0.0616,0.0613,0.0584,0.0566,0.0516,0.0454,0.0372,0.0271,0.0133,0.0135,0.0038,-0.0043,-0.0043,-0.005,-0.0103,-0.0038,0.0005,-0.0263,-0.006,-0.006,-0.0061,0,0.0482,0.0533,0.0599,0.061,0.0641,0.0671,0.0688,0.0673,0.0714,0.0701,0.076,0.0624,0.0636,0.0463,0.0291,0.0222,0.018,0.0065,-0.0015,-0.0014,-0.0018,-0.0018,-0.022,-0.0014,-0.0014,-0.0014,-0.0015,0,0.0549,0.0606,0.0649,0.0693,0.0793,0.077,0.0874,0.0866,0.0907,0.1015,0.0875,0.0969,0.069,0.0628,0.04,0.0246,0.0271,0.0023,0.0001,0.0007,0.0008,-0.0239,-0.0387,-0.0013,-0.0013,-0.0013,-0.0014,0,0.0633,0.0646,0.0748,0.081,0.0842,0.0925,0.1036,0.1114,0.1128,0.1284,0.1309,0.1266,0.1198,0.0931,0.0708,0.0449,0.012,0.0194,0.0241,0.0222,-0.0169,-0.031,-0.0469,-0.0596,0.0085,0.0086,0.0086,0,0.0682,0.0742,0.0865,0.0954,0.1002,0.1116,0.1207,0.1235,0.1346,0.1498,0.1611,0.1605,0.1658,0.1338,0.0889,0.0529,0.0239,0.0265,0.0093,-0.0161,-0.0336,-0.044,-0.0545,0.0123,0.0124,0.0124,0.0125,0,0.0798,0.0848,0.0941,0.1114,0.1241,0.138,0.1522,0.1642,0.1723,0.1892,0.2126,0.2194,0.1914,0.1569,0.1043,0.0754,0.0071,0.0264,-0.0022,-0.033,-0.0431,-0.0571,0.0081,0.013,0.013,0.0129,0.0129,0.0129,0.0905,0.0999,0.1124,0.1286,0.1436,0.1624,0.1764,0.1952,0.2184,0.2462,0.2522,0.2707,0.2143,0.1442,0.1003,0.0163,0.0134,-0.0147,-0.0292,-0.0369,-0.0524,0.0163,0.019,0.019,0.019,0.019,0.019,0,0.1022,0.1119,0.1282,0.1475,0.1651,0.1702,0.1956,0.2126,0.2444,0.2764,0.3004,0.2877,0.2179,0.1416,0.0279,-0.0318,-0.0558,-0.0637,-0.0827,-0.0908,-0.0311,-0.0348,-0.0408,-0.0407,-0.0407,-0.0407,-0.0407,-0.0406,0.1095,0.1246,0.1309,0.1599,0.1749,0.1989,0.214,0.2437,0.2709,0.3122,0.329,0.3366,0.2742,0.0787,-0.0573,-0.0885,-0.1297,-0.1357,-0.1579,-0.1236,-0.1203,-0.1173,-0.1246,-0.1493,-0.1494,-0.2123,-0.213,-0.2135]}],[{"header":{"parameterUnit":"m.s-1","parameterCategory":2,"la1":30.2991,"la2":30.254,"lo1":-89.0895,"lo2":-89.0444,"dy":0.0017,"dx":0.0017,"nx":28,"ny":28,"refTime":"2024-06-08T03:00:00:Z","depth":"2","parameterNumber":2,"parameterNumberName":"U-component_of_CURRENTS"},"data":[0,0,0,0,0,0,0,0,0,0,0,0,0,0,0,0,0,0,0,0,0,0,0,0,0,0,0,0,0,0,0,0,0,0,0,0,0,0,0,0,0,0,0,0,0,0,0,0,0,0,0,0,0,0,0,0,0,0,0.3162,0.3162,0,0.3201,0.3201,0.3202,0.3205,0.3205,0.3205,0.3205,0.3257,0.3258,0.326,0,0,0,0,0,0,0,0,0,0,0,0,0,0.3092,0.3093,0.3162,0.3162,0.3163,0.3201,0.3201,0.3202,0.3205,0.3205,0.3205,0.3205,0.3256,0.3258,0.326,0,0,0,0,0,0,0,0,0,0,0,0,0,0.3124,0.3093,0.3161,0.3171,0.3173,0.3201,0.3201,0.3202,0.3205,0.3205,0.3205,0.3205,0.3256,0.3258,0.326,0.3281,0,0,0.3268,0.3269,0,0,0,0,0,0,0,0,0.3122,0.3126,0.3169,0.3171,0.3172,0.32,0.3196,0.323,0.3205,0.319,0.3205,0.3204,0.3241,0.3244,0.3249,0.3283,0.3286,0.3268,0.3269,0.327,0.3271,0,0,0,0,0,0,0,0.3119,0.3124,0.3175,0.317,0.3172,0.3175,0.3178,0.3202,0.3215,0.3192,0.3193,0.3201,0.3241,0.3247,0.325,0.3286,0.3268,0.327,0.3271,0.3272,0.3424,0.3427,0,0,0,0,0,0,0.312,0.3122,0.3174,0.3176,0.3148,0.3176,0.318,0.3189,0.3215,0.3219,0.3201,0.3201,0.3243,0.3247,0.3252,0.3363,0.327,0.3272,0.3274,0.3422,0.3425,0.3428,0,0,0,0,0,0,0.3118,0.3124,0.3172,0.3152,0.3158,0.3178,0.3188,0.319,0.3209,0.3222,0.3226,0.3219,0.3243,0.3249,0.3309,0.3362,0.3273,0.3276,0.3419,0.3423,0.3426,0.3531,0,0,0,0,0,0,0.3116,0.3123,0.3133,0.3152,0.316,0.3207,0.3189,0.3192,0.3215,0.3215,0.3238,0.3242,0.3243,0.3305,0.3311,0.3364,0.3277,0.3415,0.342,0.3425,0.3524,0.3538,0.355,0,0,0,0,0,0.3113,0.3132,0.3133,0.314,0.3171,0.3208,0.3213,0.3223,0.3216,0.3236,0.3263,0.3242,0.334,0.331,0.3316,0.337,0.3413,0.3419,0.3425,0.3519,0.3535,0.355,0,0,0,0,0,0,0.3107,0.3135,0.3136,0.3163,0.319,0.321,0.3232,0.3234,0.3268,0.3275,0.3277,0.3284,0.335,0.335,0.3316,0.3429,0.3373,0.338,0.3442,0.3458,0.347,0.3512,0.3279,0,0,0,0,0,0.311,0.3131,0.3159,0.318,0.32,0.3217,0.3233,0.3244,0.3274,0.3288,0.3306,0.3336,0.3377,0.3409,0.3431,0.3501,0.3526,0.354,0.3552,0.3563,0.3603,0.3698,0.3724,0.3447,0.3447,0.3447,0,0,0.3109,0.3131,0.3139,0.318,0.3203,0.3256,0.3226,0.3266,0.3308,0.329,0.3357,0.3374,0.3401,0.3477,0.3508,0.3489,0.3651,0.3571,0.358,0.3614,0.3707,0.3734,0.3758,0.3451,0.345,0.345,0,0,0.3127,0.3145,0.3173,0.3209,0.3255,0.3286,0.3302,0.3339,0.3353,0.3422,0.342,0.3483,0.3534,0.3579,0.3605,0.3706,0.3703,0.3703,0.3822,0.3913,0.3937,0.3959,0.4007,0.4032,0.3725,0.3725,0.3726,0,0.3123,0.3169,0.3187,0.3236,0.3274,0.3307,0.3359,0.3394,0.3443,0.3474,0.346,0.3585,0.3592,0.3714,0.3755,0.3738,0.3779,0.3757,0.3932,0.3954,0.3974,0.4019,0.4045,0.3731,0.3731,0.373,0.3729,0,0.3175,0.3215,0.3243,0.3322,0.3365,0.3419,0.3474,0.3528,0.3559,0.3592,0.3697,0.3736,0.382,0.3829,0.3831,0.3983,0.3959,0.3923,0.3894,0.4009,0.4047,0.4073,0.3739,0.3737,0.3736,0.3734,0,0,0.3152,0.3256,0.3267,0.3313,0.3415,0.3458,0.3554,0.3645,0.372,0.3784,0.3889,0.3975,0.4002,0.4038,0.405,0.4145,0.4303,0.4117,0.4119,0.4168,0.4499,0.4356,0.437,0.4308,0.4314,0.4318,0.4461,0,0.3187,0.3274,0.3332,0.3439,0.3489,0.357,0.3661,0.3747,0.3819,0.3931,0.4004,0.4104,0.4078,0.4141,0.4237,0.4283,0.4381,0.4268,0.438,0.4383,0.4245,0.4399,0.4056,0.4145,0.4486,0.449,0.4493,0,0.3221,0.3274,0.3368,0.3491,0.3526,0.3615,0.3771,0.3856,0.4013,0.4068,0.4201,0.4251,0.4414,0.4365,0.4552,0.4486,0.4523,0.4552,0.4557,0.4415,0.429,0.409,0.4179,0.4536,0.4532,0.4529,0.4526,0,0.3187,0.3303,0.3379,0.3424,0.3577,0.3651,0.375,0.3898,0.3977,0.4175,0.426,0.4435,0.4533,0.464,0.4688,0.4652,0.4869,0.4804,0.4714,0.4702,0.4429,0.4383,0.4963,0.4963,0.4962,0.4962,0.4962,0,0.3204,0.3266,0.3374,0.343,0.3534,0.3643,0.3781,0.3903,0.4078,0.4184,0.4334,0.4447,0.4616,0.4732,0.477,0.482,0.4932,0.4785,0.4758,0.4449,0.4406,0.4752,0.4725,0.4967,0.4966,0.4965,0.4964,0,0.3166,0.3242,0.3334,0.3481,0.3527,0.3605,0.3782,0.3877,0.4053,0.4208,0.4283,0.4504,0.4654,0.477,0.4937,0.4897,0.4966,0.4947,0.4554,0.4479,0.472,0.4698,0.4896,0.4892,0.489,0.4887,0.4885,0,0.3162,0.3202,0.3341,0.3379,0.3455,0.3568,0.3649,0.3845,0.3924,0.4207,0.4263,0.4496,0.4586,0.4772,0.4788,0.4851,0.493,0.4537,0.4407,0.4774,0.4728,0.471,0.4691,0.408,0.4072,0.4065,0.4059,0,0.3149,0.3202,0.3267,0.3326,0.3409,0.3474,0.359,0.365,0.3872,0.3999,0.4156,0.4275,0.4474,0.4394,0.4486,0.4464,0.4501,0.4398,0.4934,0.4135,0.4013,0.3964,0.3972,0.3999,0.4005,0.4009,0.4012,0.4015,0.3119,0.3141,0.3213,0.3244,0.3308,0.3326,0.3317,0.3448,0.3546,0.368,0.3903,0.3968,0.4076,0.4046,0.395,0.39,0.4205,0.4027,0.4045,0.4072,0.3937,0.3816,0.3738,0.3742,0.3746,0.3749,0.3752,0,0.3053,0.3077,0.3114,0.3126,0.3086,0.3197,0.3219,0.317,0.3186,0.3406,0.3502,0.3309,0.331,0.3416,0.3266,0.3282,0.3225,0.3135,0.3038,0.3104,0.3161,0.2975,0.2524,0.2519,0.2515,0.2511,0,0,0.3021,0.3003,0.2996,0.2877,0.288,0.2808,0.2769,0.273,0.2788,0.2805,0.2855,0.316,0.3331,0.2879,0.284,0.2652,0.2837,0.2544,0.3545,0.3498,0.3549,0.3712,0.3506,0,0,0,0,0]},{"header":{"parameterUnit":"m.s-1","parameterCategory":2,"la1":30.2991,"la2":30.254,"lo1":-89.0895,"lo2":-89.0444,"dy":0.0017,"dx":0.0017,"nx":28,"ny":28,"refTime":"2024-06-08T03:00:00:Z","depth":"2","parameterNumber":3,"parameterNumberName":"V-component_of_CURRENTS"},"data":[0,0,0,0,0,0,0,0,0,0,0,0,0,0,0,0,0,0,0,0,0,0,0,0,0,0,0,0,0,0,0,0,0,0,0,0,0,0,0,0,0,0,0,0,0,0,0,0,0,0,0,0,0,0,0,0,0,0,0.0073,0.0073,0,0.0022,0.0021,0.002,-0.0027,-0.0028,-0.0028,-0.0028,-0.0152,-0.0154,-0.0157,0,0,0,0,0,0,0,0,0,0,0,0,0,0.006,0.006,0.0073,0.0073,0.0072,0.0022,0.0021,0.002,-0.0027,-0.0028,-0.0028,-0.0028,-0.0151,-0.0154,-0.0158,0,0,0,0,0,0,0,0,0,0,0,0,0,0.004,0.0061,0.0073,0.0045,0.0042,0.0022,0.0021,0.002,-0.0027,-0.0028,-0.0028,-0.0029,-0.0149,-0.0154,-0.0158,-0.0177,0,0,-0.0172,-0.0174,0,0,0,0,0,0,0,0,0.0041,0.004,0.0049,0.0047,0.0044,0.0006,-0.0028,-0.0048,-0.0027,-0.0004,-0.0028,-0.0029,-0.0103,-0.0111,-0.0124,-0.0183,-0.0188,-0.0172,-0.0175,-0.0177,-0.0178,0,0,0,0,0,0,0,0.0043,0.0042,0.005,0.0049,0.0046,0.0011,0.0008,-0.0033,-0.0054,-0.0006,-0.0009,-0.001,-0.0106,-0.0119,-0.0127,-0.019,-0.0172,-0.0176,-0.0179,-0.0181,-0.0262,-0.0262,0,0,0,0,0,0,0.006,0.0044,0.0051,0.0048,0.0045,0.0013,0.0009,0.0016,-0.0052,-0.0062,-0.0009,-0.0011,-0.0111,-0.0122,-0.0131,-0.0141,-0.0177,-0.0181,-0.0184,-0.0263,-0.0262,-0.0262,0,0,0,0,0,0,0.006,0.0061,0.0053,0.0047,0.0044,0.0014,0.0022,0.0015,0.0006,-0.0053,-0.0065,-0.001,-0.0112,-0.0125,-0.0159,-0.0147,-0.0183,-0.0187,-0.0264,-0.0263,-0.0262,-0.0171,0,0,0,0,0,0,0.006,0.0062,0.0069,0.0048,0.0045,0.0054,0.0022,0.0015,0.0008,0.0004,-0.0058,-0.007,-0.0113,-0.0152,-0.0164,-0.0154,-0.0191,-0.0264,-0.0263,-0.0262,-0.0175,-0.0167,-0.0161,0,0,0,0,0,0.006,0.008,0.007,0.0071,0.0058,0.0055,0.005,0.0024,0.0009,0.0012,-0.0031,-0.0068,-0.0154,-0.0155,-0.0169,-0.016,-0.0265,-0.0264,-0.0262,-0.0178,-0.0169,-0.0161,0,0,0,0,0,0,0.0078,0.0077,0.0065,0.0084,0.0074,0.0048,0.0052,0.0032,0.0002,-0.0004,-0.0064,-0.0079,-0.0103,-0.0144,-0.0144,-0.0181,-0.0215,-0.0216,-0.0146,-0.0138,-0.0131,-0.01,-0.0195,0,0,0,0,0,0.0087,0.0103,0.009,0.0105,0.0105,0.0079,0.0073,0.0058,0.003,0.0017,-0.0025,-0.0072,-0.0109,-0.0132,-0.0171,-0.0194,-0.0227,-0.0197,-0.019,-0.0183,-0.0167,-0.0202,-0.0196,-0.0258,-0.0258,-0.0258,0,0,0.0098,0.0101,0.0108,0.011,0.0101,0.0114,0.0074,0.0077,0.0087,0.0007,0.0003,-0.0048,-0.0109,-0.013,-0.0145,-0.0164,-0.0185,-0.0182,-0.0176,-0.0163,-0.02,-0.0194,-0.0188,-0.0257,-0.0257,-0.0257,0,0,0.014,0.0133,0.0163,0.016,0.0158,0.0143,0.0149,0.0129,0.0118,0.0104,0.0052,0.0016,-0.0045,-0.0079,-0.0107,-0.0085,-0.0144,-0.0105,-0.005,-0.0083,-0.0078,-0.0074,-0.0112,-0.0112,-0.0105,-0.0105,-0.0105,0,0.0152,0.019,0.0169,0.0197,0.021,0.0164,0.0201,0.0181,0.015,0.0151,0.0116,0.0045,-0.0015,-0.0031,-0.0034,-0.0067,-0.0102,-0.0075,-0.0072,-0.0069,-0.0066,-0.0107,-0.0108,-0.01,-0.0101,-0.0101,-0.0102,0,0.0216,0.0242,0.0261,0.0284,0.0293,0.0314,0.0295,0.0288,0.0264,0.0245,0.0226,0.0146,0.0109,0.0075,0.0019,0.0011,-0.0025,-0.0056,-0.0089,-0.0054,-0.01,-0.0103,-0.0094,-0.0096,-0.0097,-0.0098,0,0,0.0259,0.03,0.0307,0.0344,0.0345,0.0368,0.0377,0.0387,0.0413,0.0353,0.0383,0.0291,0.0249,0.0215,0.0143,0.0096,0.0067,0.0027,0.0023,-0.0002,-0.0013,-0.0044,-0.0051,0.0032,0.0032,0.0032,-0.0054,0,0.0319,0.0402,0.04,0.0476,0.0523,0.049,0.0517,0.0514,0.0494,0.0503,0.0419,0.0412,0.0304,0.0289,0.0226,0.0115,0.0064,0.0093,-0.0051,-0.0055,-0.0078,-0.0053,-0.0017,-0.0091,-0.0057,-0.0058,-0.0058,0,0.0388,0.0441,0.0532,0.0602,0.062,0.0651,0.0699,0.0715,0.0696,0.0682,0.0643,0.0579,0.0506,0.0413,0.0246,0.0267,0.0138,0.0039,0.0033,-0.0025,-0.009,-0.0121,-0.0098,-0.0064,-0.0063,-0.0063,-0.0062,0,0.0461,0.0537,0.0621,0.0641,0.07,0.0738,0.0767,0.0775,0.0817,0.0803,0.0827,0.0724,0.0691,0.0521,0.0302,0.0275,0.0116,0.0059,-0.0088,-0.0093,-0.0103,-0.0108,-0.0051,-0.0051,-0.0051,-0.005,-0.005,0,0.0535,0.0603,0.0665,0.0713,0.0824,0.0835,0.0939,0.0941,0.0975,0.1051,0.0935,0.0961,0.0715,0.0587,0.0367,0.0139,0.0168,-0.0067,-0.011,-0.0072,-0.0073,-0.0083,-0.0086,-0.0054,-0.0053,-0.0052,-0.0052,0,0.0603,0.0635,0.0743,0.0829,0.0863,0.0948,0.1056,0.1125,0.114,0.1234,0.124,0.1143,0.0976,0.0717,0.0447,0.0244,0.0018,-0.0074,-0.0016,-0.0052,-0.019,-0.0187,-0.024,-0.0242,-0.0243,-0.0245,-0.0246,0,0.0643,0.0704,0.0833,0.0905,0.095,0.1068,0.1149,0.1202,0.1287,0.1352,0.1408,0.1286,0.1213,0.0806,0.0432,0.0067,0.0013,-0.0138,-0.0187,-0.0169,-0.0206,-0.0201,-0.0196,-0.0173,-0.0173,-0.0174,-0.0174,0,0.0723,0.0765,0.0856,0.1003,0.111,0.1239,0.1364,0.1455,0.1533,0.1615,0.1682,0.1631,0.1256,0.0891,0.0394,0.0148,-0.008,-0.0156,-0.0135,-0.0128,-0.0112,-0.0147,-0.0143,-0.0176,-0.0176,-0.0176,-0.0175,-0.0175,0.078,0.0856,0.0967,0.111,0.1235,0.1389,0.1516,0.1645,0.1796,0.1923,0.187,0.1808,0.1395,0.0756,0.0325,-0.0114,-0.0099,-0.0257,-0.0253,-0.025,-0.0224,-0.0211,-0.0289,-0.029,-0.029,-0.029,-0.029,0,0.0846,0.0931,0.1062,0.1237,0.1379,0.1439,0.1643,0.1767,0.1958,0.2047,0.2093,0.1705,0.1291,0.0819,0.0167,-0.023,-0.0258,-0.0352,-0.0298,-0.0292,-0.0288,-0.0263,-0.034,-0.0341,-0.0342,-0.0344,0,0,0.0884,0.101,0.1075,0.1315,0.1446,0.1662,0.1788,0.1952,0.2063,0.2143,0.2114,0.2011,0.1439,0.0956,0.0414,0.004,-0.0033,-0.0034,0.0051,0.0186,0.0195,-0.0186,-0.0135,0,0,0,0,0]}],[{"header":{"parameterUnit":"m.s-1","parameterCategory":2,"la1":30.2991,"la2":30.254,"lo1":-89.0895,"lo2":-89.0444,"dy":0.0017,"dx":0.0017,"nx":28,"ny":28,"refTime":"2024-06-08T03:00:00:Z","depth":"4","parameterNumber":2,"parameterNumberName":"U-component_of_CURRENTS"},"data":[0,0,0,0,0,0,0,0,0,0,0,0,0,0,0,0,0,0,0,0,0,0,0,0,0,0,0,0,0,0,0,0,0,0,0,0,0,0,0,0,0,0,0,0,0,0,0,0,0,0,0,0,0,0,0,0,0,0,0.2108,0.2109,0,0.2183,0.2184,0.2185,0.2259,0.226,0.2261,0.2262,0.2288,0.2287,0.2287,0,0,0,0,0,0,0,0,0,0,0,0,0,0.2004,0.2006,0.2108,0.2109,0.2111,0.2183,0.2184,0.2185,0.2259,0.226,0.2262,0.2263,0.2288,0.2287,0.2287,0,0,0,0,0,0,0,0,0,0,0,0,0,0.2059,0.2006,0.2108,0.2158,0.2163,0.2183,0.2184,0.2185,0.2259,0.226,0.2262,0.2264,0.2288,0.2287,0.2287,0.2248,0,0,0.2285,0.2285,0,0,0,0,0,0,0,0,0.2056,0.2063,0.2149,0.2154,0.216,0.2215,0.2157,0.2204,0.2258,0.222,0.2262,0.2265,0.2259,0.2261,0.2269,0.2249,0.225,0.2285,0.2284,0.2284,0.2284,0,0,0,0,0,0,0,0.2052,0.206,0.2136,0.215,0.2157,0.2168,0.2177,0.2166,0.2226,0.2224,0.223,0.2241,0.2261,0.2269,0.227,0.2251,0.2285,0.2284,0.2284,0.2284,0.2326,0.2328,0,0,0,0,0,0,0.2047,0.2056,0.2134,0.2139,0.2114,0.2168,0.2179,0.2194,0.2228,0.2236,0.2239,0.2244,0.227,0.2271,0.2271,0.2337,0.2284,0.2284,0.2283,0.2325,0.2326,0.2328,0,0,0,0,0,0,0.2044,0.2053,0.2131,0.21,0.2111,0.2169,0.2185,0.2195,0.2247,0.224,0.2247,0.2286,0.2271,0.2272,0.229,0.2334,0.2283,0.2283,0.2323,0.2325,0.2327,0.2398,0,0,0,0,0,0,0.2041,0.2051,0.2079,0.21,0.2113,0.2168,0.2184,0.2195,0.2249,0.2258,0.2282,0.2284,0.2272,0.2291,0.229,0.2332,0.2282,0.2321,0.2324,0.2327,0.2393,0.2402,0.2409,0,0,0,0,0,0.2037,0.2056,0.208,0.209,0.2143,0.2169,0.2177,0.2221,0.225,0.2275,0.229,0.2286,0.2309,0.2291,0.2289,0.2333,0.232,0.2323,0.2326,0.239,0.24,0.2409,0,0,0,0,0,0,0.2025,0.2066,0.2092,0.2126,0.216,0.2183,0.2214,0.2243,0.2275,0.2296,0.2289,0.2291,0.2328,0.2316,0.2296,0.2355,0.232,0.2323,0.2369,0.2378,0.2386,0.2392,0.2282,0,0,0,0,0,0.2034,0.2062,0.21,0.213,0.2152,0.2192,0.2217,0.225,0.2273,0.2294,0.2308,0.2324,0.2331,0.2345,0.2346,0.2366,0.2387,0.2398,0.2406,0.2413,0.2418,0.2489,0.2504,0.2339,0.2339,0.2339,0,0,0.2036,0.2064,0.2082,0.213,0.2163,0.2186,0.2213,0.2263,0.2291,0.2285,0.2335,0.2349,0.2342,0.2372,0.2389,0.2374,0.2474,0.2417,0.2423,0.2424,0.2494,0.251,0.2525,0.2341,0.2341,0.2341,0,0,0.2033,0.2084,0.2103,0.2138,0.2196,0.2213,0.2237,0.2287,0.2328,0.2363,0.2375,0.2414,0.2424,0.2436,0.2437,0.2487,0.2511,0.2504,0.2553,0.2623,0.2637,0.265,0.2712,0.2729,0.2512,0.2513,0.2513,0,0.2038,0.2064,0.2113,0.214,0.2167,0.2226,0.2247,0.2289,0.2342,0.2381,0.239,0.2452,0.245,0.249,0.2515,0.2506,0.2554,0.2516,0.2635,0.2648,0.266,0.2719,0.2738,0.2516,0.2516,0.2516,0.2515,0,0.2037,0.2076,0.2092,0.214,0.2176,0.2208,0.2265,0.2326,0.238,0.242,0.2499,0.251,0.2558,0.2567,0.2553,0.2644,0.2654,0.2635,0.2612,0.2681,0.2739,0.2757,0.2522,0.252,0.2519,0.2518,0,0,0.199,0.2072,0.2082,0.2118,0.2183,0.2214,0.2274,0.2342,0.2418,0.2477,0.2566,0.2587,0.2643,0.2648,0.2663,0.2715,0.2841,0.2725,0.2727,0.2789,0.3016,0.283,0.2832,0.2862,0.2865,0.2868,0.3028,0,0.1971,0.2014,0.2058,0.2108,0.2136,0.222,0.2275,0.236,0.244,0.2548,0.2604,0.269,0.266,0.2725,0.277,0.2831,0.2891,0.28,0.2936,0.294,0.2769,0.2847,0.2878,0.3041,0.3046,0.3049,0.3051,0,0.1944,0.1981,0.2018,0.212,0.2144,0.2196,0.2325,0.2385,0.2538,0.262,0.2721,0.2786,0.2888,0.2859,0.2991,0.2948,0.2993,0.3021,0.3028,0.2838,0.2787,0.2954,0.3084,0.3081,0.3079,0.3076,0.3074,0,0.1876,0.1957,0.1986,0.2017,0.2131,0.2201,0.228,0.2422,0.2508,0.2699,0.2799,0.2912,0.3016,0.3079,0.3139,0.3103,0.328,0.3231,0.3099,0.3088,0.3177,0.3161,0.3327,0.3327,0.3326,0.3326,0.3325,0,0.1819,0.1861,0.1981,0.2004,0.2095,0.2193,0.2315,0.2431,0.2602,0.2706,0.2852,0.295,0.3086,0.3191,0.321,0.3212,0.3345,0.3121,0.3117,0.3203,0.3189,0.3191,0.3173,0.3332,0.3331,0.3329,0.3328,0,0.1745,0.1808,0.187,0.2006,0.2065,0.2145,0.2341,0.2424,0.2611,0.2761,0.2838,0.3042,0.3174,0.3269,0.3397,0.3296,0.3319,0.3287,0.34,0.3399,0.3066,0.305,0.3152,0.3146,0.3142,0.3138,0.3135,0,0.1704,0.172,0.1868,0.1919,0.1996,0.2132,0.2218,0.2416,0.2496,0.2774,0.2823,0.3049,0.3154,0.3188,0.3296,0.3339,0.3288,0.3281,0.3128,0.3062,0.305,0.3041,0.3031,0.3128,0.3127,0.3126,0.3125,0,0.1625,0.1692,0.1752,0.185,0.1951,0.2036,0.218,0.2229,0.2437,0.2643,0.2756,0.2846,0.2995,0.3075,0.3147,0.3155,0.3267,0.3234,0.3241,0.3096,0.3035,0.3025,0.3021,0.3109,0.3112,0.3113,0.3114,0,0.1583,0.1607,0.1683,0.1761,0.1861,0.1886,0.1991,0.2087,0.2196,0.2488,0.2525,0.2757,0.2962,0.2985,0.3041,0.305,0.2987,0.2861,0.2886,0.2905,0.2745,0.2625,0.2585,0,0,0,0,0,0.1522,0.1522,0.1583,0.1628,0.1711,0.1765,0.1922,0.2021,0.2232,0.2247,0.2378,0.2501,0.2618,0.2741,0.27,0.2925,0.2989,0.2863,0.2853,0.3025,0.3042,0.2874,0,0,0,0,0,0,0.1472,0.1525,0.1532,0.1483,0.1486,0.155,0.1639,0.1793,0.1809,0.2053,0.2133,0.2333,0.2485,0.2609,0.2645,0.2681,0.262,0.3015,0.3008,0.3015,0.3031,0.3045,0.2878,0,0,0,0,0]},{"header":{"parameterUnit":"m.s-1","parameterCategory":2,"la1":30.2991,"la2":30.254,"lo1":-89.0895,"lo2":-89.0444,"dy":0.0017,"dx":0.0017,"nx":28,"ny":28,"refTime":"2024-06-08T03:00:00:Z","depth":"4","parameterNumber":3,"parameterNumberName":"V-component_of_CURRENTS"},"data":[0,0,0,0,0,0,0,0,0,0,0,0,0,0,0,0,0,0,0,0,0,0,0,0,0,0,0,0,0,0,0,0,0,0,0,0,0,0,0,0,0,0,0,0,0,0,0,0,0,0,0,0,0,0,0,0,0,0,0.0085,0.0084,0,0.0051,0.0051,0.005,0.0013,0.0013,0.0012,0.0012,-0.0062,-0.0063,-0.0065,0,0,0,0,0,0,0,0,0,0,0,0,0,0.0071,0.0072,0.0085,0.0084,0.0084,0.0051,0.0051,0.005,0.0013,0.0013,0.0012,0.0012,-0.0061,-0.0063,-0.0065,0,0,0,0,0,0,0,0,0,0,0,0,0,0.0059,0.0072,0.0085,0.0063,0.0061,0.0052,0.0051,0.005,0.0013,0.0013,0.0012,0.0012,-0.006,-0.0063,-0.0065,-0.007,0,0,-0.0073,-0.0074,0,0,0,0,0,0,0,0,0.006,0.006,0.0067,0.0065,0.0063,0.0038,0.0019,0.0009,0.0013,0.0029,0.0012,0.0011,-0.003,-0.0035,-0.0043,-0.0073,-0.0077,-0.0073,-0.0074,-0.0075,-0.0076,0,0,0,0,0,0,0,0.0061,0.0061,0.0069,0.0067,0.0064,0.004,0.0038,0.0017,0.0,0.0028,0.0025,0.0025,-0.0032,-0.004,-0.0045,-0.0078,-0.0073,-0.0075,-0.0077,-0.0078,-0.0086,-0.0085,0,0,0,0,0,0,0.0073,0.0062,0.007,0.0068,0.0062,0.0041,0.0039,0.0044,0.0001,-0.0005,0.0026,0.0024,-0.0036,-0.0042,-0.0048,-0.0027,-0.0075,-0.0078,-0.0079,-0.0087,-0.0086,-0.0084,0,0,0,0,0,0,0.0073,0.0074,0.0072,0.0065,0.0064,0.0043,0.0049,0.0044,0.0038,0.0001,-0.0007,0.0026,-0.0037,-0.0044,-0.0051,-0.0031,-0.0079,-0.0081,-0.0089,-0.0087,-0.0085,-0.0003,0,0,0,0,0,0,0.0072,0.0074,0.0081,0.0067,0.0065,0.0077,0.0049,0.0044,0.004,0.0037,-0.0002,-0.0009,-0.0038,-0.0047,-0.0053,-0.0035,-0.0083,-0.009,-0.0088,-0.0086,-0.0007,0.0001,0.0009,0,0,0,0,0,0.0072,0.009,0.0081,0.0082,0.0075,0.0078,0.0075,0.0055,0.0041,0.0046,0.0025,-0.0008,-0.0037,-0.0048,-0.0056,-0.0038,-0.0091,-0.0089,-0.0086,-0.0011,-0.0,0.0009,0,0,0,0,0,0,0.0087,0.0088,0.0078,0.0094,0.009,0.0072,0.0078,0.0062,0.0049,0.0046,0.0005,-0.0003,-0.0001,-0.0028,-0.0039,-0.0032,-0.0069,-0.0067,-0.0009,0.0,0.0008,0.0028,-0.0085,0,0,0,0,0,0.0095,0.0109,0.01,0.0115,0.0116,0.0097,0.0094,0.0083,0.0071,0.0064,0.0039,0.0017,0.0004,-0.0004,-0.0022,-0.0019,-0.0066,-0.0012,-0.0003,0.0003,0.0015,-0.0039,-0.0035,-0.0075,-0.0075,-0.0075,0,0,0.0104,0.0107,0.0114,0.0119,0.0114,0.0132,0.0094,0.0101,0.0118,0.0058,0.0073,0.0042,0.0012,0.0018,0.0016,-0.0002,-0.001,0.0007,0.0013,0.0021,-0.0036,-0.0032,-0.0029,-0.0073,-0.0074,-0.0074,0,0,0.0142,0.0136,0.0163,0.0164,0.0166,0.016,0.0166,0.0155,0.0151,0.0159,0.0124,0.0111,0.0089,0.0074,0.0063,0.0106,0.0034,0.0097,0.0153,0.01,0.0103,0.0104,0.0045,0.004,0.0102,0.0102,0.0102,0,0.0152,0.0187,0.0171,0.0197,0.021,0.018,0.0214,0.0208,0.0197,0.02,0.0177,0.015,0.0121,0.0127,0.0145,0.0124,0.0075,0.0117,0.011,0.011,0.011,0.0049,0.0043,0.0106,0.0106,0.0105,0.0105,0,0.021,0.0236,0.0254,0.0283,0.0293,0.0316,0.0311,0.0319,0.0308,0.0295,0.0295,0.0252,0.0235,0.0223,0.0198,0.0194,0.0152,0.0123,0.0083,0.0119,0.0052,0.0045,0.0112,0.0111,0.0109,0.0108,0,0,0.0244,0.0288,0.0295,0.0327,0.034,0.0362,0.0392,0.0413,0.0433,0.0406,0.0424,0.0397,0.0357,0.0342,0.0298,0.0257,0.0214,0.0198,0.0193,0.0137,0.0085,0.007,0.0059,0.0175,0.0174,0.0174,0.0035,0,0.0297,0.0369,0.0377,0.045,0.0488,0.0479,0.0511,0.0519,0.0512,0.0517,0.0467,0.0462,0.0406,0.0395,0.0347,0.0248,0.0199,0.0254,0.0061,0.0056,0.0035,0.0052,0.0172,0.0029,0.0027,0.0025,0.0024,0,0.0354,0.0398,0.0476,0.0542,0.0558,0.0598,0.0645,0.0668,0.0658,0.0647,0.0621,0.0567,0.0518,0.046,0.0305,0.0338,0.0226,0.0141,0.0132,0.0087,0.0027,-0.0014,0.001,0.0011,0.0012,0.0013,0.0014,0,0.0394,0.0472,0.0542,0.0561,0.0621,0.0664,0.0701,0.0711,0.0741,0.0727,0.073,0.0649,0.061,0.0469,0.0295,0.0293,0.0106,0.0077,-0.0044,-0.0048,-0.0031,-0.0032,-0.0034,-0.0034,-0.0034,-0.0033,-0.0033,0,0.0446,0.0506,0.0571,0.061,0.0698,0.0722,0.0803,0.0817,0.0841,0.0876,0.0799,0.0789,0.0608,0.0479,0.0314,0.0112,0.0113,-0.003,-0.0079,0.0006,0.0012,-0.0038,-0.0037,-0.0039,-0.0037,-0.0036,-0.0036,0,0.0475,0.0516,0.0603,0.0687,0.0721,0.0785,0.0884,0.0932,0.0941,0.0982,0.0982,0.0887,0.0714,0.0514,0.0274,0.0143,-0.0052,-0.0127,-0.0022,-0.0065,-0.0178,-0.0171,-0.027,-0.0272,-0.0273,-0.0274,-0.0275,0,0.0494,0.0538,0.0653,0.0712,0.076,0.0857,0.0921,0.0977,0.1029,0.1035,0.1054,0.0918,0.0821,0.0479,0.0259,-0.006,-0.0105,-0.0207,-0.0183,-0.0162,-0.02,-0.0191,-0.0182,-0.0277,-0.0277,-0.0278,-0.0278,0,0.0522,0.0562,0.0636,0.0753,0.0845,0.0947,0.1048,0.1093,0.1145,0.1152,0.111,0.0945,0.0748,0.0483,0.0233,0.0006,-0.0137,-0.0222,-0.0221,-0.0199,-0.0172,-0.0206,-0.0196,-0.0283,-0.0282,-0.0282,-0.0281,0,0.0541,0.0591,0.0684,0.0794,0.0906,0.1012,0.1065,0.1128,0.1178,0.1187,0.1164,0.0962,0.0849,0.0515,0.0285,0.006,0.0003,-0.0063,-0.0071,-0.0068,0.0033,0.01,0.0035,0,0,0,0,0,0.0557,0.062,0.0716,0.0844,0.0955,0.1026,0.1136,0.1178,0.1224,0.1205,0.1194,0.1012,0.0686,0.0545,0.0317,0.0238,-0.0051,-0.0037,-0.0134,-0.0308,-0.0303,-0.0219,0,0,0,0,0,0,0.0569,0.0661,0.0714,0.0863,0.0952,0.108,0.1155,0.1189,0.1181,0.1189,0.1018,0.0951,0.0627,0.0813,0.0311,0.0243,0.015,-0.0186,-0.0191,-0.0311,-0.0306,-0.0302,-0.0215,0,0,0,0,0]}]]